Weather in Vilkaviskis

Lithuania     54˚39′00″N   23˚01′47″E
temp.,
°C
wind,
m/s
gust,
m/s
humid.,
%
clouds,
%
prec.,
mm/h
press.,
hPa
HPBL,
m
3 december, thu
thu323:00−3˚se499119 0.0 1024365
02:00−3˚se479239 0.0 1022355
05:00−3˚sse578878 0.0 1021452
08:00−2˚se588489 0.0 1019542
11:00−2˚se6979100 0.0 1019641
14:00−1˚se6117497 0.0 1017633
17:00−1˚se7147978 0.0 1016609
20:00se8158289 0.0 1015640
4 december, fri
fri423:00+1˚se71581100 0.0 1014726
02:00+1˚se71584100 0.0 1013681
05:00+1˚se71685100 0.0 1011616
08:00+2˚se81785100 0.0 1011605
11:00+3˚se111881100 0.0 1011648
14:00+4˚se101782100 0.0 1011643
17:00+3˚se11198595 0.0 1011577
20:00+4˚se10198590 0.0 1011632
5 december, sat
sat523:00+4˚sse9208630 0.0 1011582
02:00+6˚sse10198727 0.0 1012605
05:00+6˚sse9188747 0.0 1012605
08:00+7˚sse9178564 0.0 1014664
11:00+7˚sse10178292 0.0 1015722
14:00+8˚se9168091 0.0 1015765
17:00+7˚se9178089 0.0 1015773
20:00+7˚se9168078 0.0 1017776
6 december, sun
sun623:00+7˚se9168067 0.0 1017720
02:00+6˚se8168148 0.0 1018707
05:00+6˚se8168187 0.0 1018682
08:00+5˚se8158093 0.0 1019717
11:00+5˚se91576100 0.0 1020799
14:00+5˚se91474100 0.0 1020860
17:00+3˚se91476100 0.0 1019869
20:00+1˚se8157492 0.0 1020787
7 december, mon
mon723:00+1˚se8167435 0.0 1020740
02:00se8157461 0.0 1019767
05:00se81574100 0.0 1018791
08:00+1˚se81471100 0.0 1018934
11:00+1˚se91466100 0.0 1019938
14:00+1˚se9146598 0.0 1018920
17:00+1˚se8156894 0.0 1018743
20:00+1˚se8156297 0.0 1019740